{"data":{"norad_id":68965,"intl_designator":"2026-099Q","name":"STARLINK-36664","alt_names":[],"object_type":"PAYLOAD","status":"ACTIVE","operator":null,"country":"US","launch_date":"2026-05-01","launch_site_code":"AFETR","launch_vehicle":null,"mission":null,"orbit_class":"UNKNOWN","rcs_meters":null,"size_class":null,"mass_kg":null,"dimensions":null,"purposes":["comms"],"wikipedia_slug":null,"has_3d_model":false,"image_url":null,"decayed_at":null,"tle_current":{"epoch":"2026-05-25T04:00:03.998880Z","epoch_age_seconds":54479,"freshness":"FRESH","line1":"1 68965U 26099Q   26145.16671295 -.01909639  00000+0 -18239-1 0  9997","line2":"2 68965  53.1590 269.9373 0000755  72.3599 286.3486 15.69084190  5016","mean_motion":15.6908419,"eccentricity":7.55e-5,"inclination_deg":53.159,"raan_deg":269.9373,"arg_perigee_deg":72.3599,"mean_anomaly_deg":286.3486,"bstar":-0.018239,"rev_number":501,"period_min":91.773278271321,"perigee_km":361.0093303088,"apogee_km":362.02701824012,"semimajor_km":6739.6551742745,"source":"CELESTRAK","updated_at":"2026-05-25T13:38:22.074885Z"}}}